Flag for Canada Weather past 2 weeks in Gander, Newfoundland and Labrador, Canada

Now
61 °F

Drizzle. Fog.


Feels Like: 61 °F
Forecast: 58 / 75 °F
Wind: 10 mph from Southwest

Location: Gander Int. Airport

Current Time: Aug 2, 2015 at 8:01:24 AM

Latest Report: Aug 2, 2015 at 7:30 AM


Visibility: 3 mi

Pressure: 29.70 "Hg

Humidity: 100%

Dew point: 61 °F

Location of GanderLocation

Historic Weather in Gander — Graph

°F

Gander temperature yesterday

Maximum temperature yesterday: 64 °F (at 4:30 PM)
Minimum temperature yesterday: 50 °F (at 12:30 AM)
Average temperature yesterday: 56 °F

Past Weeks' High & Low Weather Summary

 TemperatureHumidityPressure
High72 °F (Jul 29, 2:30 PM)100% (Jul 18, 6:30 AM)30.22 "Hg (Jul 18, 6:30 AM)
Low39 °F (Jul 25, 5:30 AM)38% (Jul 29, 2:30 PM)29.33 "Hg (Jul 23, 3:30 PM)
Average52 °F88%29.96 "Hg
* Reported Jul 18 6:30 AM — Aug 2 6:30 AM, Gander, Weather by CustomWeather, © 2015

Note: Actual official high and low records may vary slightly from our data, if they occured in-between our weather recording intervals... More about our weather records

Advertising

Gander weather history for previous 24 hours

 ConditionsComfort  
Time TempWeatherWind HumidityBarometerVisibility
6:30 AM
Sun, Aug 2
61 °FDrizzle. Fog.12 mph94%29.70 "Hg4 mi
5:30 AM61 °FDrizzle. Fog.12 mph100%29.70 "Hg3 mi
4:30 AM61 °FDrizzle. Fog.9 mph100%29.71 "Hg3 mi
3:30 AM61 °FDrizzle. Fog.7 mph100%29.71 "Hg2 mi
3:18 AM61 °FDrizzle. Fog.7 mph100%29.71 "Hg2 mi
2:30 AM59 °FFog.5 mph100%29.72 "Hg3 mi
1:30 AM59 °FFog.8 mph100%29.73 "Hg2 mi
12:30 AM57 °FFog.7 mph100%29.74 "Hg0 mi
11:30 PM
Sat, Aug 1
57 °FFog.6 mph100%29.75 "Hg2 mi
11:18 PM57 °FFog.6 mph100%29.75 "Hg2 mi
10:30 PM59 °FPassing clouds.6 mph100%29.74 "Hg12 mi
9:30 PM61 °FOvercast.7 mph100%29.73 "Hg15 mi
8:30 PM63 °FOvercast.9 mph94%29.73 "Hg20 mi
7:30 PM64 °FOvercast.7 mph94%29.73 "Hg20 mi
6:30 PM64 °FOvercast.8 mph94%29.74 "Hg20 mi
5:30 PM64 °FLow clouds.10 mph94%29.74 "Hg20 mi
4:30 PM64 °FLow clouds.9 mph88%29.75 "Hg20 mi
3:30 PM63 °FLow clouds.9 mph94%29.77 "Hg15 mi
2:30 PM61 °FLow clouds.10 mph94%29.76 "Hg15 mi
1:30 PM61 °FDrizzle. Low clouds.13 mph88%29.76 "Hg8 mi
12:30 PM57 °FDrizzle. Fog.12 mph94%29.78 "Hg4 mi
11:30 AM57 °FDrizzle. Fog.12 mph94%29.79 "Hg4 mi
10:30 AM55 °FDrizzle. Fog.9 mph100%29.80 "Hg5 mi
9:30 AM54 °FDrizzle. Fog.13 mph100%29.80 "Hg5 mi
8:30 AM52 °FLight rain. Fog.13 mph100%29.81 "Hg2 mi
Weather by CustomWeather, © 2015

See weather overviewHow to use our weather pages